NOAA NWS Hourly Roundups by Site

Regional Weather Roundup for San Diego, CA

To Select Another Site Choose from List

Select Site:  

000
ASUS46 KSGX 200111
RWRSGX

SAN DIEGO HOURLY WEATHER ROUNDUP
NATIONAL WEATHER SERVICE SAN DIEGO CA
600 PM PDT SUN MAY 19 2019

NOTE: "FAIR" INDICATES FEW OR NO CLOUDS BELOW 12,000 FEET WITH NO
SIGNIFICANT WEATHER AND/OR OBSTRUCTIONS TO VISIBILITY.

CAZ042-043-060-061-PZZ750-775-200200-

GREATER SAN DIEGO AREA

CITY           SKY/WX    TMP DP  RH WIND       PRES   REMARKS
SAN DIEGO AP   PTSUNNY   65  52  62 W14G23    29.92S
NATIONAL CITY    N/A     64  54  70 NW3       29.91S
CHULA VISTA      N/A     65  55  68 W7        29.82S
IMPERIAL BEACH FLURRIES N/A N/A N/A MISG      29.91S
BROWN FIELD    MOSUNNY   62  51  67 NW9G23    29.90S
MIRAMAR MCAS   MOSUNNY   63  52  67 W15G21    29.89S
MONTGOMERY FLD MOSUNNY   61  50  67 W17       29.90S
GILLESPIE FLD  PTSUNNY   63  52  67 W12G17    29.90R

$$

NORTH SAN DIEGO COUNTY

CITY           SKY/WX    TMP DP  RH WIND       PRES   REMARKS
CAMP PENDLETON MOSUNNY   61  54  77 W8        29.88S
OCEANSIDE AP   MOSUNNY   62  53  72 W13       29.88S
OCEANSIDE HBR    N/A     61  55  79 CALM      29.91S
VISTA            N/A     61  54  79 SW1       29.86R
CARLSBAD       MOSUNNY   63  53  70 NW9G16    29.88R
DEL MAR          N/A     62  56  80 W2        29.91S
LA JOLLA SCRIP   N/A     61  54  76 S2        29.89S
FALLBROOK        N/A     61  50  67 W16       29.88R
ESCONDIDO        N/A     62  53  72 SW9       29.88R
SAN MARCOS       N/A     61  54  77 NW12      29.92R
POWAY            N/A     60  53  77 CALM      29.91S

$$

EAST SAN DIEGO COUNTY

CITY           SKY/WX    TMP DP  RH WIND       PRES   REMARKS
RAMONA         PTSUNNY   59  50  72 W13       29.88S
SANTEE LAKES     N/A     62  53  73 W6        29.86S
LA MESA          N/A     61  52  73 W16       29.85S
JAMUL            N/A     59  52  78 CALM      29.90S
MT. LAGUNA OBS   N/A     37  36  96 SW33      29.80S WCI  24
CAMPO            N/A     54  43  66 W21       29.84S

$$

ORANGE COUNTY AND THE LOS ANGELES BASIN

CITY           SKY/WX    TMP DP  RH WIND       PRES   REMARKS
JOHN WAYNE AP  MOSUNNY   63  49  60 W12G21    29.88R
LAGUNA BEACH     N/A     67  54  62 E3        29.87F
LAKE FOREST FR   N/A     60  46  60 W2        29.76F
HUNTINGTON BCH   N/A     63  54  71 W14       29.88S
LOS ALAMITOS   PTSUNNY   64  49  56 W12       29.87R
FULLERTON      MOSUNNY   65  46  50 W9G18     29.86R
LONG BEACH     SUNNY     64  45  49 W14G23    29.87S
L.A. AP        MOSUNNY   62  50  64 SW17      29.87S
L.A. DOWNTOWN  MOSUNNY   63  44  50 VRB5      29.86S

$$

THE INLAND EMPIRE

CITY           SKY/WX    TMP DP  RH WIND       PRES   REMARKS
CORONA         PTSUNNY   62  47  57 SW14G20   29.86R
CHINO          PTSUNNY   65  48  54 W21       29.85S
ONTARIO        PTSUNNY   66  46  48 W16       29.84R
SAN BERNARDINO PTSUNNY   63  43  48 SW16      29.83F
RIVERSIDE AP   PTSUNNY   63  45  51 SW21G28   29.83S
MORENO VALLEY    N/A     63  52  68 W9        27.95F
MARCH ARB      MOSUNNY   62  43  49 W13       29.82F
HORSETHIEF CYN   N/A     59  40  50 W7        29.85S
PERRIS           N/A     61  51  70 S9        29.80F
HEMET EAST       N/A     57  47  69 S3        29.82F
FRENCH VALLEY  MOCLDY    61  46  59 SW12      29.85S
TEMECULA         N/A     63  56  77 SW9       29.81F

$$

SAN BERNARDINO AND RIVERSIDE COUNTY MOUNTAINS

CITY           SKY/WX    TMP DP  RH WIND       PRES   REMARKS
BIG BEAR AP    PTSUNNY   36  28  75 SW12G21   29.82F WCI  27

$$

SOUTHERN DESERT INCLUDING THE COACHELLA VALLEY

CITY           SKY/WX    TMP DP  RH WIND       PRES   REMARKS
PALM SPRINGS   SUNNY     76  39  26 NE13G21   29.70F
THOUSAND PALMS   N/A     74  42  32 N10       29.68S
PALM DESERT      N/A     74  38  27 W7        29.41F
THERMAL        NOT AVBL
BORREGO AP     FAIR      70  39  32 SW22G33   29.75S
BLYTHE         MOSUNNY   76  41  28 SW26G33   29.70F
IMPERIAL AP    PTSUNNY  N/A N/A N/A MISG      29.74S
EL CENTRO NAS  LGT RAIN  72  38  29 W33G43    29.76S
YUMA AZ        PTSUNNY   75  47  36 NW21G30   29.72S
MEXICALI       PTSUNNY   75  41  29 W16       29.73S

$$

UPPER DESERT

CITY           SKY/WX    TMP DP  RH WIND       PRES   REMARKS
VICTORVILLE AP PTSUNNY  N/A N/A N/A SW12G23   29.77S
HESPERIA         N/A     55  42  62 W12       29.79S
APPLE VALLEY     N/A     56  41  58 N21       29.77S
PALMDALE       PTSUNNY   56  40  55 SW24G31   29.79R
LANCASTER      LGT RAIN  50  45  83 W20G29    29.81S
EDWARDS AFB    PTSUNNY   55  43  64 SW24G33   29.76S
DAGGETT        CLOUDY    65  34  31 SW29G38   29.72R
29 PALMS N     SUNNY     68  31  25 SW30G41   29.75F
NEEDLES        MOSUNNY   81  29  15 SW22G30   29.60S

$$

REGIONAL REPORTS

CITY           SKY/WX    TMP DP  RH WIND       PRES   REMARKS
SANTA BARBARA  CLOUDY    59  53  80 W16G23    29.84F
SANDBERG       LGT RAIN  41  40  96 NW13      29.83R FOG
LAS VEGAS NV   MOSUNNY   70  29  21 SW18G29   29.58S
PHOENIX AZ     CLOUDY    79  36  21 W20G26    29.67S
TIJUANA        PTSUNNY   63  52  67 SW14      29.93
ENSENADA NW      N/A     64  32  29 W1        29.87F

$$

OFFSHORE ISLANDS

CITY           SKY/WX    TMP DP  RH WIND       PRES   REMARKS
CATALINA ARPT  MOSUNNY   55  50  83 W22       29.89F
SAN CLEMENTE I CLOUDY    63  32  31 MISG      29.92F
SAN NICOLAS IS MOSUNNY   62  50  64 W18G26    29.90S

$$

MARINE AND OFFSHORE BUOY REPORTS

STATION/POSITION SKY/WX   TEMP    WIND        PRES    VSBY  SWELL
                          AIR SEA DIR/SP/G                  HT/PER/DIR
                          (F)     (DEG/KT/KT) (MB)    (MI)  (FT/S/D)
TANNER BANKS               60     270/ 12/ 16 1014.4
S CLEMENTE BASIN           61 63  290/ 19/ 23 1012.9F         3/260/14
SAN NICOLAS IS.               60                N/A           5/290/13
SO. S. ROSA ISLA           55 58  280/ 17/ 21 1012.2          7/310/14
W. S. BARBARA CH                                N/A           7/300/12
M. S. BARBARA CH           58 57  250/ 14/ 17 1011.5F         3/280/13
S. MONICA BASIN            60 62  260/ 17/ 23 1011.4F         2/230/12
S PEDRO CHANNEL               59                N/A           2/240/14
CMP PENDLETON NS              63                N/A           2/210/20
OCEANSIDE OFFSHR              62                N/A           2/210/14
TORREY PINES OTR              63                N/A           2/220/13
SAN DIEGO BAY                 67              1012.1S
IMPERIAL BEACH                62                N/A           2/280/15
POINT LOMA SOUTH              63                N/A           2/220/14

$$



 

View Past Reports for San Diego, CA.

Products Courtesy of NOAA-NWS
NWS Information Parsing Script by Ken True at Saratoga Weather - Script by SE Lincoln Weather.